Details From YLHI - Lord Howe Island
To YBBN - Brisbane Intl
Flight Number -
Tags Generated
Created
Modified
Stats Distance 398 nm / 738 km
Max Altitude 0 ft / 0 m
Waypoints 3
Social Downloads 0
Likes 0
Share VATSIM

Download

Looking for another format? Having issues loading an existing format? Contact us
Advertisement - Login to hide

Notes

Generated

Route

YLHI BBNSM YBBN

ID Type Via Altitude Latitude Longitude Leg Dist Tot Dist Heading (true) Name
O YLHI APT - 0 ft / 0 m -31.53674˚ 159.07171˚ - 0 nm - -
BBNSM FIX - 0 ft / 0 m -27.41128˚ 153.11347˚ 397 nm 397 nm 307° / 310° -
O YBBN APT - 0 ft / 0 m -27.40786˚ 153.10379˚ 0 nm 398 nm 292° / 292° -

Altitude Profile

Advertisement - Login to hide

Weather


0- 5 10 15 20 25 30 35+ Temperature / ° C

Clouds and Precipitation
Forecast for 2017-12-17 06:00 UTC. Updated an hour ago

Ground ~20,000 ft ~40,000 ft Winds

YLHI

Details ICAO YLHI (LDH)
Name Lord Howe Island
Region Australia
Timezone Unknown (UTC+0.0)
Stats Elevation 16 ft / 5 m (AMSL)
Location -31.538405° 159.075986°
Runways 1
Magnetic Variation 14.054° E

METAR

YLHI 170600Z AUTO 07008KT 9999 // SCT027 24/17 Q1018

Decode

TAF

TAF YLHI 170508Z 1706/1806 09010KT 9999 -SHRA SCT020 FM171200 08005KT 9999 -SHRA BKN020 FM172200 05006KT 9999 SCT020

Decode

Departure Runways

ID Width Length Bearing (true) Bearing (mag) Surface Threshold Offset Overrun Length
10 98 ft / 30 m 2,902 ft / 885 m 114.50° 100.45° Asphalt 0 ft / 0 m 194 ft / 59 m
28 98 ft / 30 m 2,902 ft / 885 m 294.50° 280.45° Asphalt 322 ft / 98 m 190 ft / 58 m

YBBN

Details ICAO YBBN (BNE)
Name Brisbane Intl
Region Australia
Timezone Australia/Brisbane (UTC+10.0)
Stats Elevation 12 ft / 4 m (AMSL)
Location -27.375714° 153.127710°
Runways 2
Magnetic Variation 10.985° E

METAR

YBBN 170600Z 05013KT 9999 FEW025 27/19 Q1014 NOSIG

Decode

TAF

TAF YBBN 170511Z 1706/1812 06010KT 9999 FEW035 FM171800 20005KT 9999 FEW020 FM172200 10009KT 9999 FEW050 FM180300 06011KT 9999 FEW050

Decode

Destination Runways

ID Width Length Bearing (true) Bearing (mag) Surface Threshold Offset Overrun Length
01 148 ft / 45 m 11,805 ft / 3,598 m 26.93° 15.95° Asphalt 197 ft / 60 m 0 ft / 0 m
14 98 ft / 30 m 5,787 ft / 1,764 m 145.66° 134.68° Asphalt 197 ft / 60 m 0 ft / 0 m
19 148 ft / 45 m 11,805 ft / 3,598 m 206.92° 195.94° Asphalt 0 ft / 0 m 0 ft / 0 m
32 98 ft / 30 m 5,787 ft / 1,764 m 325.66° 314.68° Asphalt 197 ft / 60 m 0 ft / 0 m

Approach Navaids

Runway Type Ident Frequency Range Bearing (true) Bearing (mag) Slope Elevation
01 Localiser IBA 109.50 MHz 18 nm / 33 km 26.70° 15.71° - 28 ft / 9 m (AMSL)
01 Glidescope IBA 109.50 MHz 10 nm / 19 km 26.92° 15.94° 3.00° 13 ft / 4 m (AMSL)
19 Localiser IBS 110.10 MHz 18 nm / 33 km 206.97° 195.98° - 49 ft / 15 m (AMSL)
19 Glidescope IBS 110.10 MHz 10 nm / 19 km 206.92° 195.94° 3.00° 13 ft / 4 m (AMSL)

Popular Alternatives